Printer-friendly version

IAU Minor Planet Center

Minor Planet Center

MPEC 2008-R54 : COMET P/2001 TU80 = 2008 R5 (LINEAR-NEAT)

The following Minor Planet Electronic Circular may be linked-to from your own Web pages, but must not otherwise be redistributed electronically.


Read MPEC 2008-R53 Read MPEC 2008-R55


M.P.E.C. 2008-R54                                Issued 2008 Sept.  9, 20:48 UT

     The Minor Planet Electronic Circulars contain information on unusual
         minor planets and routine data on comets.  They are published
   on behalf of Commission 20 of the International Astronomical Union by the
          Minor Planet Center, Smithsonian Astrophysical Observatory,
                          Cambridge, MA 02138, U.S.A.

             Prepared using the Tamkin Foundation Computer Network

                              MPC@CFA.HARVARD.EDU
          URL http://www.cfa.harvard.edu/iau/mpc.html  ISSN 1523-6714

                   COMET P/2001 TU80 = 2008 R5 (LINEAR-NEAT)

Observations:
    PK08R050  C2008 09 08.43387 06 13 37.98 +18 59 47.5                 ER054291
    PK08R050  C2008 09 08.44513 06 13 39.41 +18 59 47.7                 ER054291
    PK08R050  C2008 09 08.45637 06 13 40.73 +18 59 47.6                 ER054291
    PK08R050  C2008 09 09.44499 06 15 44.19 +18 59 42.9                 ER054691
    PK08R050  C2008 09 09.44761 06 15 44.54 +18 59 42.9                 ER054691

Observer details:
291 LPL/Spacewatch II.  Observer J. V. Scotti.  Observations identified by
    G. V. Williams.  1.8-m f/2.7 reflector + CCD.
691 Steward Observatory, Kitt Peak.  Observer J. V. Scotti.  0.9-m f/3
    reflector + CCD.

Orbital elements:
    P/2001 TU80 = 2008 R5 (LINEAR-NEAT)
Epoch 2001 Nov. 27.0 TT = JDT 2452240.5
T 2001 Dec. 10.03633 TT                                 MPC
q   1.9325186            (2000.0)            P               Q
n   0.14075415     Peri.  355.15172     -0.24675025     -0.96299813
a   3.6601193      Node   109.10241     +0.89292462     -0.26939574
e   0.4720067      Incl.    6.58683     +0.37656333     +0.00778105
P   7.00

